Home > Weather > Charleston > Past weeks

Flag for USA Weather for the Past 2 Weeks in Charleston, West Virginia, USA

Now
77 °F

Partly sunny.


Feels Like: 79 °F
Forecast: 61 / 78 °F
Wind: 7 mph from North

Location: Yeager Airport

Current Time: May 1, 2016 at 2:38:09 PM

Latest Report: May 1, 2016 at 1:54 PM


Visibility: 10 mi

Pressure: 29.92 "Hg

Humidity: 58%

Dew Point: 61 °F

Location of CharlestonLocation

Historic Weather in Charleston — Graph

°F

Charleston Temperature Yesterday

Maximum temperature yesterday: 64 °F (at 12:54 PM)
Minimum temperature yesterday: 54 °F (at 5:54 AM)
Average temperature yesterday: 60 °F

High & Low Weather Summary for the Past Weeks

 TemperatureHumidityPressure
High86 °F (Apr 18, 3:54 PM)100% (Apr 24, 8:54 AM)30.42 "Hg (Apr 24, 8:54 AM)
Low39 °F (Apr 24, 6:54 AM)14% (Apr 18, 4:54 PM)29.72 "Hg (Apr 26, 4:54 PM)
Average66 °F58%30.01 "Hg
* Reported Apr 16 12:54 PM — May 1 12:54 PM, Charleston, Weather by CustomWeather, © 2016

Note: Actual official high and low records may vary slightly from our data, if they occured in-between our weather recording intervals... More about our weather records

Advertising

Charleston Weather History for the Previous 24 Hours

Scroll right to see more
 ConditionsComfort  
Time TempWeatherWind HumidityBarometerVisibility
12:54 PM
Sun, May 1
74 °FScattered clouds.6 mph64%29.94 "Hg10 mi
11:54 AM71 °FScattered clouds.9 mph73%29.93 "Hg10 mi
11:02 AM67 °FPartly sunny.8 mph81%30.00 "Hg10 mi
10:54 AM67 °FBroken clouds.7 mph81%29.97 "Hg10 mi
9:54 AM65 °FBroken clouds.6 mph85%29.98 "Hg10 mi
8:54 AM61 °FBroken clouds.No wind90%29.97 "Hg10 mi
7:54 AM60 °FMore clouds than sun.5 mph90%29.97 "Hg10 mi
6:54 AM60 °FRain. Fog.3 mph93%29.96 "Hg2 mi
5:54 AM60 °FHeavy rain. Fog.No wind93%29.98 "Hg2 mi
4:54 AM60 °FRain. Fog.3 mph93%29.96 "Hg2 mi
3:54 AM61 °FHeavy rain. Fog.No wind90%29.96 "Hg2 mi
2:54 AM62 °FFog.No wind90%29.96 "Hg2 mi
1:54 AM61 °FHeavy rain. Fog.No wind93%29.98 "Hg2 mi
12:54 AM61 °FRain. Fog.3 mph93%30.00 "Hg5 mi
11:54 PM
Sat, Apr 30
62 °FLight rain. Mostly cloudy.7 mph86%29.98 "Hg8 mi
10:54 PM63 °FDrizzle. Overcast.5 mph81%29.95 "Hg10 mi
9:54 PM63 °FOvercast.6 mph87%29.94 "Hg10 mi
8:54 PM63 °FLight rain. Cloudy.No wind87%29.95 "Hg9 mi
7:54 PM63 °FMostly cloudy.3 mph87%29.96 "Hg10 mi
6:54 PM63 °FLight rain. Fog.3 mph90%29.99 "Hg6 mi
5:54 PM62 °FLight rain. Fog.5 mph93%30.01 "Hg4 mi
4:54 PM62 °FLight rain. Fog.3 mph90%30.02 "Hg4 mi
3:54 PM62 °FLight rain. Fog.No wind86%30.03 "Hg4 mi
2:54 PM63 °FLight rain. Mostly cloudy.5 mph81%30.04 "Hg6 mi
Weather by CustomWeather, © 2016

See weather overviewHow to use our weather pages